Location: Mouss�
(47.9236°N, 1.2701°W)
Time: 11:15:53
(UTC+00:00)

Cosmos 1666 - Pass Details

Date: 03 March 2021
Orbit: 497 x 518 km, 82.5° (Epoch: 10 April)

Event Time Altitude Azimuth Distance (km) Brightness Sun altitude
Rises 18:29:45 0° 142° (SE) 2,576 5.9 -7.0°
Reaches altitude 10° 18:32:44 10° 115° (ESE) 1,701 4.8 -7.5°
Maximum altitude 18:34:36 14° 85° (E) 1,497 4.4 -7.8°
Drops below altitude 10° 18:36:29 10° 54° (NE) 1,712 4.8 -8.1°
Sets 18:39:29 0° 28° (NNE) 2,606 6.0 -8.6°
